Location: DARK SKY Beskydy - Park tmavé oblohy, www.darkskybeskydy.cz
(49.4926°N, 18.5016°E)
Time: 10:54:02
(UTC+02:00)

Vanguard 1 - Pass Details

Date: 27 February 2024
Orbit: 653 x 3825 km, 34.2° (Epoch: 12 April)

Event Time Altitude Azimuth Distance (km) Brightness Sun altitude
Rises 16:33:29 0° 182° (S) 4,688 13.9 7.1°
Reaches altitude 10° 16:38:03 10° 161° (SSE) 4,253 13.4 6.4°
Maximum altitude 16:44:21 16° 128° (SE) 4,484 13.2 5.4°
Drops below altitude 10° 16:52:30 10° 99° (E) 5,752 13.4 4.2°
Sets 17:00:41 0° 82° (E) 7,382 13.8 2.9°
